All Spectrum Aviation - Van Nuys Airport - KVNY

HOME

Van Nuys Tower Recordings

Condor Squadron KVNY Webcam

Visit our Electronics Store

2017/11/23 22:51 KVNY 232251Z 00000KT 10SM CLR 33/00 A2992 RMK AO2 SLP121 T03330000
LATEST VAN NUYS ATIS IN MP3!
Older ATIS Recordings

Van Nuys Tower recordings

NEW FEATURE: RECORDINGS WITH SILENCE REMOVED!

All in MP3 format. 1 hour long MP3s for each file, 119.3 file is tower only
scan file is 119.0 HELI, 121.7 GROUND, 120.2 TOWER EAST, 126.6 CLEARANCE, 460.525 and 453.375 OPS

Today (2017/11/23) and Yesterday (2017/11/22)